Latest Coastal Weather Observations for Northern Endeavour (near 10.5S 126E)

IDD60701

Issued at 11:55 pm CST Saturday 25 October 2014 (issued every 10 minutes, with the page automatically refreshed every 10 minutes)

About coastal observations | Map of coastal stations | Coastal observations for NT | Marine services | Other Formats
Station Details ID: 200212 Name: NORTHERN ENDEAVOUR Lat: -10.61 Lon: 125.98 Height: 16.0 m
Data from the previous 72 hours. | See also: Recent months for locations in Northern Territory
Date/Time
CST
Temp

°C
Wind Pressure Rain
since 9am
mm
Weather Cloud Vis
km
Sea
Height
m
Swell
Dir
 
Speed
knots
Gust
knots
hPa Trend Height
m
Period
s
Dir
25/11:50pm 27.8 ESE 2 1 1013.5 - - - Cloudy 10 - - - -
25/11:40pm 27.8 ESE 2 4 1013.6 - - - Cloudy 10 - - - -
25/11:30pm 27.8 ESE 3 4 1013.7 - - - Cloudy 10 - - - -
25/11:20pm 27.9 SSE 3 4 1013.9 - - - Cloudy 10 - - - -
25/11:10pm 27.8 ESE 3 5 1014.0 - - - Cloudy 10 - - - -
25/11:00pm 27.8 ESE 3 4 1014.0 - - - Cloudy 10 - - - -
25/10:50pm 27.9 S 3 4 1013.9 - - - Cloudy 10 - - - -
25/10:40pm 28.1 S 4 4 1013.9 - - - Cloudy 10 - - - -
25/10:30pm 28.1 SE 4 5 1013.9 - - - Cloudy 10 - - - -
25/10:20pm 28.0 ESE 3 6 1013.9 - - - Cloudy 10 - - - -
25/10:10pm 28.1 ESE 6 6 1013.9 - - - Cloudy 10 - - - -
25/10:00pm 28.0 ESE 6 6 1013.9 - - - Cloudy 10 - - - -
25/09:50pm 28.0 E 4 5 1013.9 - - - Cloudy 10 - - - -
25/09:40pm 28.0 ESE 7 9 1013.9 - - - Cloudy 10 - - - -
25/09:30pm 28.1 E 6 7 1014.0 - - - Cloudy 10 - - - -
25/09:20pm 28.0 E 4 5 1014.0 - - - Cloudy 10 - - - -
25/09:10pm 28.0 E 5 5 1014.1 - - - Cloudy 10 - - - -
25/09:00pm 28.1 E 4 7 1014.0 - - - Cloudy 10 - - - -
25/08:50pm 28.1 E 4 4 1013.9 - - - Cloudy 10 - - - -
25/08:40pm 28.2 E 6 7 1013.9 - - - Cloudy 10 - - - -
25/08:30pm 28.1 E 4 5 1013.8 - - - Cloudy 10 - - - -
25/08:20pm 28.2 E 5 5 1013.7 - - - Cloudy 10 - - - -
25/08:10pm 28.2 E 5 7 1013.6 - - - Cloudy 10 - - - -
25/08:00pm 28.3 E 6 6 1013.4 - - - Cloudy 10 - - - -
25/07:50pm 28.2 E 6 6 1013.5 - - - Cloudy 10 - - - -
25/07:40pm 28.2 E 5 6 1013.5 - - - Partly cloudy 10 - - - -
25/07:30pm 28.2 E 6 6 1013.4 - - - Partly cloudy 10 - - - -
25/07:20pm 28.2 E 5 6 1013.4 - - - Partly cloudy 10 - - - -
25/07:10pm 28.3 E 5 7 1013.3 - - - Partly cloudy 10 - - - -
25/07:00pm 28.5 E 5 8 1013.2 - - - Partly cloudy 10 - - - -
25/06:50pm 28.7 ESE 6 6 1013.1 - - - Cloudy 10 - - - -
25/06:40pm 28.9 E 5 8 1013.0 - - - Cloudy 10 - - - -
25/06:30pm 28.8 E 5 7 1012.8 - - - Cloudy 10 - - - -
25/06:20pm 28.9 E 5 6 1012.7 - - - Cloudy 10 - - - -
25/06:10pm 29.1 E 5 6 1012.6 - - - Cloudy 10 - - - -
25/06:00pm 29.3 ESE 5 8 1012.6 - - - Cloudy 10 - - - -
25/05:50pm 29.3 E 4 6 1012.4 - - - Cloudy 10 - - - -
25/05:40pm 29.3 E 5 7 1012.3 - - - Cloudy 10 - - - -
25/05:30pm 29.3 E 4 7 1012.2 - - - Cloudy 10 - - - -
25/05:20pm 29.1 ESE 5 5 1012.2 - - - Partly cloudy 10 - - - -
25/05:10pm 29.3 E 3 4 1012.2 - - - Partly cloudy 10 - - - -
25/05:00pm 29.6 ESE 5 5 1012.3 - - - Partly cloudy 10 - - - -
25/04:50pm 29.3 ESE 5 7 1012.3 - - - Partly cloudy 10 - - - -
25/04:40pm 29.2 ESE 5 6 1012.4 - - - Partly cloudy 10 - - - -
25/04:30pm 29.3 SE 5 7 1012.4 - - - Partly cloudy 10 - - - -
25/04:20pm 29.1 ESE 5 7 1012.4 - - - Partly cloudy 10 - - - -
25/04:10pm 28.9 E 4 6 1012.4 - - - Cloudy 10 - - - -
25/04:00pm 29.0 ESE 4 7 1012.5 - - - Cloudy 10 - - - -
25/03:50pm 29.1 ESE 4 4 1012.6 - - - Cloudy 10 - - - -
25/03:40pm 29.3 ESE 4 5 1012.6 - - - Cloudy 10 - - - -
25/03:30pm 28.3 E 4 5 1012.7 - - - Cloudy 10 - - - -
25/03:20pm 28.7 ESE 4 6 1012.6 - - - Partly cloudy 10 - - - -
25/03:10pm 28.9 E 4 6 1012.7 - - - Cloudy 10 - - - -
25/03:00pm 28.4 E 4 6 1012.8 - - - Cloudy 10 - - - -
25/02:50pm 28.6 E 4 7 1012.9 - - - Cloudy 10 - - - -
25/02:40pm 30.3 ESE 6 7 1013.0 - - - Cloudy 10 - - - -
25/02:30pm 28.9 E 5 7 1013.1 - - - Cloudy 10 - - - -
25/02:20pm 29.0 ENE 4 6 1013.0 - - - Cloudy 10 - - - -
25/02:10pm 28.7 ENE 3 4 1013.0 - - - Cloudy 10 - - - -
25/02:00pm 29.0 ENE 5 6 1013.1 - - - Cloudy 10 - - - -
25/01:50pm 29.0 E 5 7 1013.2 - - - Cloudy 10 - - - -
25/01:40pm 28.9 ENE 4 7 1013.4 - - - Cloudy 10 - - - -
25/01:30pm 28.4 ENE 5 5 1013.6 - - - Partly cloudy 10 - - - -
25/01:20pm 29.0 E 4 6 1013.8 - - - Partly cloudy 10 - - - -
25/01:10pm 29.1 E 5 6 1014.0 - - - Partly cloudy 10 - - - -
25/01:00pm 29.0 E 5 8 1014.1 - - - Partly cloudy 10 - - - -
25/12:50pm 29.1 E 6 8 1014.2 - - - Partly cloudy 10 - - - -
25/12:40pm 28.9 E 6 8 1014.4 - - - Cloudy 10 - - - -
25/12:30pm 29.3 ESE 6 8 1014.5 - - - Cloudy 10 - - - -
25/12:20pm 29.9 E 6 9 1014.6 - - - Cloudy 10 - - - -
25/12:10pm 30.0 E 8 8 1014.7 - - - Cloudy 10 - - - -
25/12:00pm 28.9 E 7 10 1014.9 - - - Cloudy 10 - - - -
25/11:50am 28.7 E 6 9 1015.0 - - - Cloudy 10 - - - -
25/11:40am 29.3 E 9 9 1015.1 - - - Cloudy 10 - - - -
25/11:30am 28.7 E 8 8 1015.2 - - - Partly cloudy 10 - - - -
25/11:20am 28.7 E 6 7 1015.3 - - - Cloudy 10 - - - -
25/11:10am 28.6 E 8 10 1015.3 - - - Cloudy 10 - - - -
25/11:00am 28.6 E 7 10 1015.4 - - - Cloudy 10 - - - -
25/10:50am 28.6 E 6 11 1015.4 - - - Cloudy 10 - - - -
25/10:40am 28.5 E 8 10 1015.5 - - - Cloudy 10 - - - -
25/10:30am 28.4 E 8 10 1015.6 - - - Cloudy 10 - - - -
25/10:20am 28.6 ESE 7 7 1015.5 - - - Cloudy 10 - - - -
25/10:10am 28.7 E 6 10 1015.5 - - - Cloudy 10 - - - -
25/10:00am 29.1 ESE 6 8 1015.6 - - - Cloudy 10 - - - -
25/09:50am 28.7 ESE 6 6 1015.6 - - - Cloudy 10 - - - -
25/09:40am 28.4 E 5 8 1015.5 - - - Cloudy 10 - - - -
25/09:30am 28.5 E 6 8 1015.5 - - - Cloudy 10 - - - -
25/09:20am 28.8 ESE 6 8 1015.6 - - - Cloudy 10 - - - -
25/09:10am 28.6 ESE 7 9 1015.7 - - - Cloudy 10 - - - -
25/09:00am 28.2 ESE 7 9 1015.6 - - - Cloudy 10 - - - -
25/08:50am 28.0 E 7 10 1015.5 - - - Cloudy 10 - - - -
25/08:40am 27.9 ENE 7 9 1015.4 - - - Cloudy 10 - - - -
25/08:30am 27.8 ENE 8 9 1015.3 - - - Cloudy 10 - - - -
25/08:20am 27.7 ENE 8 10 1015.2 - - - Cloudy 10 - - - -
25/08:10am 27.6 ENE 8 10 1015.2 - - - Cloudy 10 - - - -
25/08:00am 27.5 ENE 6 9 1015.1 - - - Cloudy 10 - - - -
25/07:50am 27.6 ENE 7 7 1014.9 - - - Cloudy 10 - - - -
25/07:40am 27.5 ENE 8 10 1014.8 - - - Cloudy 10 - - - -
25/07:30am 27.4 ENE 8 9 1014.7 - - - Cloudy 10 - - - -
25/07:20am 27.3 ENE 9 10 1014.6 - - - Cloudy 10 - - - -
25/07:10am 27.3 ENE 9 10 1014.5 - - - Cloudy 10 - - - -
25/07:00am 27.2 ENE 7 9 1014.3 - - - Cloudy 10 - - - -
25/06:50am 27.3 NE 10 12 1014.2 - - - Cloudy 10 - - - -
25/06:40am 27.3 NE 9 12 1014.0 - - - Cloudy 10 - - - -
25/06:30am 27.2 ENE 8 9 1014.0 - - - Cloudy 10 - - - -
25/06:20am 27.3 ENE 8 9 1014.0 - - - Cloudy 10 - - - -
25/06:10am 27.3 ENE 8 9 1013.9 - - - Cloudy 10 - - - -
25/06:00am 27.3 ENE 7 10 1013.8 - - - Cloudy 10 - - - -
25/05:50am 27.2 ENE 8 9 1013.7 - - - Partly cloudy 10 - - - -
25/05:40am 27.3 ENE 8 11 1013.6 - - - Partly cloudy 10 - - - -
25/05:30am 27.2 E 7 8 1013.5 - - - Partly cloudy 10 - - - -
25/05:20am 27.2 ENE 8 9 1013.4 - - - Partly cloudy 10 - - - -
25/05:10am 27.2 E 7 10 1013.3 - - - Partly cloudy 10 - - - -
25/05:00am 27.2 E 6 8 1013.3 - - - Partly cloudy 10 - - - -
25/04:50am 27.2 ENE 8 8 1013.1 - - - Partly cloudy 10 - - - -
25/04:40am 27.2 ENE 8 8 1012.9 - - - Partly cloudy 10 - - - -
25/04:30am 27.2 ENE 7 9 1012.9 - - - Partly cloudy 10 - - - -
25/04:20am 27.2 ENE 7 9 1012.7 - - - Partly cloudy 10 - - - -
25/04:10am 27.2 ENE 6 8 1012.5 - - - Partly cloudy 10 - - - -
25/04:00am 27.2 ENE 6 9 1012.4 - - - Partly cloudy 10 - - - -
25/03:50am 27.1 ENE 6 8 1012.2 - - - Partly cloudy 10 - - - -
25/03:40am 27.2 ENE 7 8 1012.2 - - - Cloudy 10 - - - -
25/03:30am 27.2 ENE 6 8 1012.1 - - - Partly cloudy 10 - - - -
25/03:20am 27.2 ENE 6 8 1012.1 - - - Cloudy 10 - - - -
25/03:10am 27.3 NE 6 7 1012.0 - - - Cloudy 10 - - - -
25/03:00am 27.4 ENE 6 9 1012.0 - - - Cloudy 10 - - - -
25/02:50am 27.3 ENE 6 9 1012.0 - - - Cloudy 10 - - - -
25/02:40am 27.3 NE 7 8 1012.0 - - - Cloudy 10 - - - -
25/02:30am 27.4 NE 8 9 1012.0 - - - Cloudy 10 - - - -
25/02:20am 27.4 NE 7 10 1012.0 - - - Cloudy 10 - - - -
25/02:10am 27.4 NE 9 12 1012.1 - - - Cloudy 10 - - - -
25/02:00am 27.4 NE 10 11 1012.2 - - - Cloudy 10 - - - -
25/01:50am 27.5 NE 10 12 1012.3 - - - Cloudy 10 - - - -
25/01:40am 27.5 NE 10 11 1012.4 - - - Cloudy 10 - - - -
25/01:30am 27.6 NE 9 11 1012.5 - - - Cloudy 10 - - - -
25/01:20am 27.6 NE 9 12 1012.7 - - - Cloudy 10 - - - -
25/01:10am 27.5 NE 8 12 1012.7 - - - Cloudy 10 - - - -
25/01:00am 27.6 ENE 8 11 1012.8 - - - Cloudy 10 - - - -
25/12:50am 27.6 NE 10 11 1012.8 - - - Cloudy 10 - - - -
25/12:40am 27.6 ENE 9 13 1012.8 - - - Cloudy 10 - - - -
25/12:30am 27.7 NE 9 12 1012.8 - - - Cloudy 10 - - - -
25/12:20am 27.7 NE 9 11 1012.8 - - - Cloudy 10 - - - -
25/12:10am 27.7 NE 9 11 1012.9 - - - Cloudy 10 - - - -
25/12:00am 27.8 ENE 7 10 1012.9 - - - Cloudy 10 - - - -
 
Date/Time
CST
Temp

°C
Wind Pressure Rain
since 9am
mm
Weather Cloud Vis
km
Sea
Height
m
Swell
Dir
 
Speed
knots
Gust
knots
hPa Trend Height
m
Period
s
Dir
24/11:50pm 27.8 E 7 9 1013.0 - - - Cloudy 10 - - - -
24/11:40pm 27.8 E 8 8 1013.1 - - - Cloudy 10 - - - -
24/11:30pm 27.8 E 6 9 1013.1 - - - Cloudy 10 - - - -
24/11:20pm 27.8 E 7 10 1013.1 - - - Cloudy 10 - - - -
24/11:10pm 27.8 ESE 8 9 1013.1 - - - Cloudy 10 - - - -
24/11:00pm 27.8 E 9 9 1013.1 - - - Cloudy 10 - - - -
24/10:50pm 27.8 E 6 10 1013.1 - - - Cloudy 10 - - - -
24/10:40pm 27.8 E 7 9 1013.1 - - - Cloudy 10 - - - -
24/10:30pm 27.8 ESE 9 10 1013.2 - - - Cloudy 10 - - - -
24/10:20pm 27.8 ESE 9 10 1013.2 - - - Cloudy 10 - - - -
24/10:10pm 27.8 ESE 8 9 1013.1 - - - Cloudy 10 - - - -
24/10:00pm 27.8 E 9 9 1013.1 - - - Cloudy 10 - - - -
24/09:50pm 27.8 E 9 11 1013.0 - - - Cloudy 10 - - - -
24/09:40pm 27.8 E 9 11 1012.9 - - - Cloudy 10 - - - -
24/09:30pm 28.0 ESE 7 11 1012.7 - - - Cloudy 10 - - - -
24/09:20pm 28.1 ESE 7 8 1012.6 - - - Cloudy 10 - - - -
24/09:10pm 28.1 ESE 9 11 1012.5 - - - Cloudy 10 - - - -
24/09:00pm 28.0 ESE 8 13 1012.5 - - - Cloudy 10 - - - -
24/08:50pm 28.1 ESE 8 13 1012.4 - - - Cloudy 10 - - - -
24/08:40pm 28.2 E 8 12 1012.3 - - - Cloudy 10 - - - -
24/08:30pm 28.1 ESE 7 8 1012.3 - - - Partly cloudy 10 - - - -
24/08:20pm 28.2 E 9 10 1012.3 - - - Partly cloudy 10 - - - -
24/08:10pm 28.2 ESE 8 12 1012.2 - - - Partly cloudy 10 - - - -
24/08:00pm 28.3 ESE 6 13 1012.1 - - - Partly cloudy 10 - - - -
24/07:50pm 28.3 E 7 8 1012.1 - - - Cloudy 10 - - - -
24/07:40pm 28.4 E 7 9 1012.0 - - - Cloudy 10 - - - -
24/07:30pm 28.4 ESE 6 8 1011.8 - - - Cloudy 10 - - - -
24/07:20pm 28.3 E 7 11 1011.7 - - - Cloudy 10 - - - -
24/07:10pm 28.4 E 7 7 1011.7 - - - Cloudy 10 - - - -
24/07:00pm 28.2 E 7 8 1011.5 - - - Cloudy 10 - - - -
24/06:50pm 29.0 E 7 8 1011.4 - - - Cloudy 10 - - - -
24/06:40pm 30.0 E 6 7 1011.3 - - - Cloudy 10 - - - -
24/06:20pm 30.7 E 5 6 1011.1 - - - Cloudy 10 - - - -
24/06:10pm 30.7 E 5 6 1011.1 - - - Cloudy 10 - - - -
24/06:00pm 31.4 E 6 8 1011.0 - - - Cloudy 10 - - - -
24/05:50pm 30.5 E 5 7 1010.9 - - - Cloudy 10 - - - -
24/05:40pm 31.3 ESE 6 7 1011.0 - - - Cloudy 10 - - - -
24/05:30pm 31.6 ESE 6 8 1011.0 - - - Cloudy 10 - - - -
24/05:20pm 31.2 ESE 5 8 1010.9 - - - Cloudy 10 - - - -
24/05:10pm 31.0 E 6 8 1010.9 - - - Cloudy 10 - - - -
24/05:00pm 30.5 E 6 8 1011.0 - - - Cloudy 10 - - - -
24/04:50pm 31.1 E 5 6 1011.0 - - - Cloudy 10 - - - -
24/04:40pm 29.3 ENE 4 7 1011.0 - - - Cloudy 10 - - - -
24/04:30pm 30.0 E 4 5 1011.0 - - - Cloudy 10 - - - -
24/04:20pm 31.0 E 5 5 1010.9 - - - Cloudy 10 - - - -
24/04:10pm 30.5 E 4 6 1011.1 - - - Cloudy 10 - - - -
24/04:00pm 29.0 NE 3 6 1011.1 - - - Cloudy 10 - - - -
24/03:50pm 28.4 NE 5 5 1010.9 - - - Cloudy 10 - - - -
24/03:40pm 28.8 NE 5 6 1011.0 - - - Cloudy 10 - - - -
24/03:30pm 28.2 NE 5 8 1011.0 - - - Cloudy 10 - - - -
24/03:20pm 28.5 NE 6 8 1011.0 - - - Cloudy 10 - - - -
24/03:10pm 28.5 NE 5 8 1011.1 - - - Cloudy 10 - - - -
24/03:00pm 28.5 NE 6 7 1011.1 - - - Cloudy 10 - - - -
24/02:50pm 28.2 NE 7 6 1011.1 - - - Cloudy 10 - - - -
24/02:40pm 28.6 NE 7 7 1011.1 - - - Cloudy 10 - - - -
24/02:30pm 28.4 NE 7 7 1011.3 - - - Cloudy 10 - - - -
24/02:20pm 28.6 NE 6 9 1011.4 - - - Cloudy 10 - - - -
24/02:10pm 28.2 NE 7 9 1011.5 - - - Cloudy 10 - - - -
24/02:00pm 28.9 E 7 8 1011.7 - - - Cloudy 10 - - - -
24/01:50pm 29.0 ENE 6 7 1011.7 - - - Cloudy 10 - - - -
24/01:40pm 28.4 ENE 6 5 1011.8 - - - Cloudy 10 - - - -
24/01:30pm 28.4 ENE 6 6 1012.0 - - - Partly cloudy 10 - - - -
24/01:20pm 28.6 E 7 9 1012.1 - - - Partly cloudy 10 - - - -
24/01:10pm 28.6 ENE 7 9 1012.3 - - - Partly cloudy 10 - - - -
24/01:00pm 28.2 ENE 9 11 1012.5 - - - Partly cloudy 10 - - - -
24/12:50pm 28.4 E 6 9 1012.7 - - - Partly cloudy 10 - - - -
24/12:40pm 28.8 E 8 9 1012.8 - - - Partly cloudy 10 - - - -
24/12:30pm 28.5 E 6 10 1012.9 - - - Cloudy 10 - - - -
24/12:20pm 28.5 E 7 9 1013.0 - - - Cloudy 10 - - - -
24/12:10pm 28.9 E 7 9 1013.1 - - - Cloudy 10 - - - -
24/12:00pm 28.8 E 7 11 1013.3 - - - Cloudy 10 - - - -
24/11:50am 28.6 E 8 10 1013.4 - - - Cloudy 10 - - - -
24/11:40am 29.7 ESE 9 11 1013.5 - - - Cloudy 10 - - - -
24/11:30am 28.7 E 8 10 1013.5 - - - Partly cloudy 10 - - - -
24/11:20am 29.5 ESE 8 10 1013.6 - - - Partly cloudy 10 - - - -
24/11:10am 30.2 ESE 8 10 1013.7 - - - Cloudy 10 - - - -
24/11:00am 30.4 ESE 9 10 1013.9 - - - Cloudy 10 - - - -
24/10:50am 29.5 ESE 7 10 1014.0 - - - Cloudy 10 - - - -
24/10:40am 29.3 ESE 8 9 1014.0 - - - Cloudy 10 - - - -
24/10:30am 30.4 ESE 8 7 1014.1 - - - Cloudy 10 - - - -
24/10:20am 29.6 E 9 13 1014.2 - - - Cloudy 10 - - - -
24/10:10am 28.4 E 7 10 1014.2 - - - Cloudy 10 - - - -
24/10:00am 28.1 E 7 10 1014.3 - - - Partly cloudy 10 - - - -
24/09:50am 28.1 E 8 9 1014.3 - - - Cloudy 10 - - - -
24/09:40am 28.1 E 7 12 1014.3 - - - Partly cloudy 10 - - - -
24/09:30am 28.4 E 8 11 1014.3 - - - Cloudy 10 - - - -
24/09:20am 28.0 E 7 10 1014.2 - - - Partly cloudy 10 - - - -
24/09:10am 27.9 E 6 7 1014.2 - - - Partly cloudy 10 - - - -
24/09:00am 28.6 E 9 8 1014.3 - - - Cloudy 10 - - - -
24/08:50am 27.8 ENE 7 10 1014.2 - - - Cloudy 10 - - - -
24/08:40am 27.7 E 8 8 1014.1 - - - Cloudy 10 - - - -
24/08:30am 27.8 E 7 11 1014.0 - - - Partly cloudy 10 - - - -
24/08:20am 27.6 ENE 7 8 1013.9 - - - Partly cloudy 10 - - - -
24/08:10am 27.3 ENE 8 11 1013.9 - - - Partly cloudy 10 - - - -
24/08:00am 27.5 ENE 7 9 1013.9 - - - Partly cloudy 10 - - - -
24/07:50am 27.4 ENE 7 8 1013.8 - - - Partly cloudy 10 - - - -
24/07:40am 27.2 ENE 8 10 1013.7 - - - Partly cloudy 10 - - - -
24/07:30am 27.3 NE 9 9 1013.5 - - - Partly cloudy 10 - - - -
24/07:20am 27.1 NE 10 12 1013.4 - - - Partly cloudy 10 - - - -
24/07:10am 27.1 ENE 9 10 1013.3 - - - Partly cloudy 10 - - - -
24/07:00am 27.1 ENE 9 10 1013.3 - - - Partly cloudy 10 - - - -
24/06:50am 27.0 NE 8 11 1013.2 - - - Partly cloudy 10 - - - -
24/06:40am 27.0 NE 7 8 1013.1 - - - Partly cloudy 10 - - - -
24/06:30am 27.1 ENE 8 10 1013.0 - - - Partly cloudy 10 - - - -
24/06:20am 27.0 NE 9 9 1012.9 - - - Cloudy 10 - - - -
24/06:10am 27.1 NE 6 9 1012.7 - - - Cloudy 10 - - - -
24/06:00am 27.0 NE 8 11 1012.6 - - - Partly cloudy 10 - - - -
24/05:50am 27.0 NE 8 11 1012.5 - - - Partly cloudy 10 - - - -
24/05:40am 27.0 NE 9 11 1012.4 - - - Partly cloudy 10 - - - -
24/05:30am 27.0 NE 8 8 1012.3 - - - Partly cloudy 10 - - - -
24/05:20am 27.0 NE 8 12 1012.2 - - - Partly cloudy 10 - - - -
24/05:10am 27.1 NE 7 9 1012.0 - - - Cloudy 10 - - - -
24/05:00am 27.1 NE 8 11 1011.9 - - - Partly cloudy 10 - - - -
24/04:50am 27.1 NE 8 9 1011.9 - - - Cloudy 10 - - - -
24/04:40am 27.1 NE 9 10 1011.8 - - - Cloudy 10 - - - -
24/04:30am 27.1 NE 9 11 1011.6 - - - Cloudy 10 - - - -
24/04:20am 27.2 NE 8 10 1011.6 - - - Cloudy 10 - - - -
24/04:10am 27.1 NE 8 12 1011.5 - - - Cloudy 10 - - - -
24/04:00am 27.1 NE 8 11 1011.5 - - - Cloudy 10 - - - -
24/03:50am 27.1 NE 8 7 1011.5 - - - Cloudy 10 - - - -
24/03:40am 27.2 NE 7 8 1011.5 - - - Cloudy 10 - - - -
24/03:30am 27.2 NE 6 10 1011.6 - - - Cloudy 10 - - - -
24/03:20am 27.2 NE 6 9 1011.5 - - - Cloudy 10 - - - -
24/03:10am 27.2 NE 7 7 1011.6 - - - Cloudy 10 - - - -
24/03:00am 27.2 NNE 8 9 1011.6 - - - Cloudy 10 - - - -
24/02:50am 27.2 NNE 7 9 1011.7 - - - Cloudy 10 - - - -
24/02:40am 27.3 NNE 6 7 1011.9 - - - Cloudy 10 - - - -
24/02:30am 27.2 NNE 7 9 1012.0 - - - Cloudy 10 - - - -
24/02:20am 27.3 NE 8 11 1012.0 - - - Cloudy 10 - - - -
24/02:10am 27.5 NE 8 11 1012.2 - - - Cloudy 10 - - - -
24/02:00am 27.5 NE 8 10 1012.3 - - - Cloudy 10 - - - -
24/01:50am 27.6 NE 8 9 1012.4 - - - Cloudy 10 - - - -
24/01:40am 27.7 NNE 8 9 1012.4 - - - Cloudy 10 - - - -
24/01:30am 27.7 NNE 8 9 1012.5 - - - Cloudy 10 - - - -
24/01:20am 27.7 NE 8 9 1012.7 - - - Cloudy 10 - - - -
24/01:10am 27.7 NE 8 11 1012.8 - - - Cloudy 10 - - - -
24/01:00am 27.7 NE 10 13 1012.9 - - - Cloudy 10 - - - -
24/12:50am 27.6 NE 8 11 1013.1 - - - Partly cloudy 10 - - - -
24/12:40am 27.6 NE 8 10 1013.2 - - - Partly cloudy 10 - - - -
24/12:30am 27.6 NE 9 9 1013.3 - - - Partly cloudy 10 - - - -
24/12:20am 27.6 NE 7 12 1013.3 - - - Partly cloudy 10 - - - -
24/12:10am 27.6 NE 6 6 1013.5 - - - Partly cloudy 10 - - - -
24/12:00am 27.6 ENE 6 7 1013.6 - - - Partly cloudy 10 - - - -
 
Date/Time
CST
Temp

°C
Wind Pressure Rain
since 9am
mm
Weather Cloud Vis
km
Sea
Height
m
Swell
Dir
 
Speed
knots
Gust
knots
hPa Trend Height
m
Period
s
Dir
23/11:50pm 27.6 ENE 7 8 1013.7 - - - Partly cloudy 10 - - - -
23/11:40pm 27.6 ENE 6 9 1013.7 - - - Cloudy 10 - - - -
23/11:30pm 27.6 ENE 6 9 1013.8 - - - Partly cloudy 10 - - - -
23/11:20pm 27.6 ENE 6 7 1013.8 - - - Partly cloudy 10 - - - -
23/11:10pm 27.6 ENE 6 10 1013.8 - - - Partly cloudy 10 - - - -
23/11:00pm 27.6 ENE 6 7 1013.7 - - - Partly cloudy 10 - - - -
23/10:50pm 27.6 ENE 6 7 1013.7 - - - Partly cloudy 10 - - - -
23/10:40pm 27.6 ENE 7 8 1013.7 - - - Cloudy 10 - - - -
23/10:30pm 27.7 ENE 8 9 1013.6 - - - Cloudy 10 - - - -
23/10:20pm 27.7 ENE 7 9 1013.4 - - - Cloudy 10 - - - -
23/10:10pm 27.7 ENE 7 10 1013.4 - - - Cloudy 10 - - - -
23/10:00pm 27.7 E 7 9 1013.3 - - - Cloudy 10 - - - -
23/09:50pm 27.7 E 6 8 1013.2 - - - Cloudy 10 - - - -
23/09:40pm 27.7 E 5 6 1013.1 - - - Cloudy 10 - - - -
23/09:30pm 27.8 E 6 8 1013.0 - - - Cloudy 10 - - - -
23/09:20pm 27.8 E 7 8 1012.9 - - - Partly cloudy 10 - - - -
23/09:10pm 27.8 E 7 7 1012.8 - - - Partly cloudy 10 - - - -
23/09:00pm 27.8 E 8 8 1012.8 - - - Partly cloudy 10 - - - -
23/08:50pm 27.8 E 7 9 1012.7 - - - Cloudy 10 - - - -
23/08:40pm 27.8 E 6 7 1012.6 - - - Cloudy 10 - - - -
23/08:30pm 27.9 E 7 8 1012.6 - - - Cloudy 10 - - - -
23/08:20pm 28.2 E 7 9 1012.5 - - - Cloudy 10 - - - -
23/08:10pm 28.2 E 8 9 1012.5 - - - Cloudy 10 - - - -
23/08:00pm 28.2 E 8 10 1012.5 - - - Cloudy 10 - - - -
23/07:50pm 28.3 E 8 11 1012.4 - - - Partly cloudy 10 - - - -
23/07:40pm 28.2 ESE 8 8 1012.3 - - - Partly cloudy 10 - - - -
23/07:30pm 28.6 ESE 8 10 1012.2 - - - Partly cloudy 10 - - - -
23/07:20pm 28.1 E 8 12 1012.1 - - - Partly cloudy 10 - - - -
23/07:10pm 28.6 ESE 8 9 1012.1 - - - Partly cloudy 10 - - - -
23/07:00pm 28.2 E 8 11 1012.0 - - - Partly cloudy 10 - - - -
23/06:50pm 28.2 E 6 9 1011.8 - - - Partly cloudy 10 - - - -
23/06:40pm 28.2 E 6 7 1011.6 - - - Partly cloudy 10 - - - -
23/06:30pm 28.4 E 5 8 1011.5 - - - Partly cloudy 10 - - - -
23/06:20pm 28.1 ENE 6 8 1011.3 - - - Partly cloudy 10 - - - -
23/06:10pm 28.5 E 6 8 1011.2 - - - Cloudy 10 - - - -
23/06:00pm 28.4 ENE 5 8 1011.1 - - - Cloudy 10 - - - -
23/05:50pm 28.3 ENE 5 7 1011.0 - - - Cloudy 10 - - - -
23/05:40pm 28.4 ENE 4 5 1010.8 - - - Cloudy 10 - - - -
23/05:30pm 28.0 ENE 5 6 1010.7 - - - Cloudy 10 - - - -
23/05:20pm 28.1 ENE 5 6 1010.6 - - - Cloudy 10 - - - -
23/05:10pm 28.0 ENE 4 8 1010.5 - - - Cloudy 9 - - - -
23/05:00pm 28.0 ENE 5 5 1010.5 - - - Cloudy 10 - - - -
23/04:50pm 28.4 ENE 4 6 1010.4 - - - Cloudy 10 - - - -
23/04:40pm 28.3 NE 4 6 1010.5 - - - Cloudy 10 - - - -
23/04:30pm 28.6 ENE 6 6 1010.5 - - - Cloudy 10 - - - -
23/04:20pm 28.5 ENE 5 4 1010.6 - - - Cloudy 10 - - - -
23/04:10pm 28.6 ENE 5 8 1010.8 - - - Cloudy 10 - - - -
23/04:00pm 28.5 ENE 5 7 1011.0 - - - Cloudy 10 - - - -
23/03:50pm 28.5 ENE 7 8 1011.1 - - - Cloudy 10 - - - -
23/03:40pm 28.4 ENE 6 6 1011.1 - - - Cloudy 10 - - - -
23/03:30pm 28.2 ENE 4 8 1011.1 - - - Partly cloudy - - - - -
23/03:20pm 28.1 ENE 5 4 1011.2 - - - Partly cloudy 10 - - - -
23/03:10pm 28.1 E 4 6 1011.3 - - - Partly cloudy 10 - - - -
23/03:00pm 28.0 E 5 6 1011.4 - - - Partly cloudy 10 - - - -
23/02:50pm 28.0 E 6 9 1011.4 - - - Partly cloudy 10 - - - -
23/02:40pm 28.1 E 6 8 1011.5 - - - Partly cloudy 10 - - - -
23/02:30pm 28.0 E 5 8 1011.6 - - - Cloudy 10 - - - -
23/02:20pm 27.8 E 5 7 1011.7 - - - Partly cloudy 10 - - - -
23/02:10pm 27.9 E 6 6 1011.8 - - - Partly cloudy 10 - - - -
23/02:00pm 27.7 E 6 9 1011.9 - - - Partly cloudy 10 - - - -
23/01:50pm 27.9 E 5 7 1012.1 - - - Cloudy 10 - - - -
23/01:40pm 28.0 E 7 10 1012.2 - - - Cloudy 10 - - - -
23/01:30pm 27.8 E 6 8 1012.3 - - - Partly cloudy 10 - - - -
23/01:20pm 28.0 ENE 7 9 1012.5 - - - Partly cloudy 10 - - - -
23/01:10pm 27.9 ENE 9 8 1012.6 - - - Partly cloudy 10 - - - -
23/01:00pm 27.9 ENE 9 11 1012.8 - - - Partly cloudy 10 - - - -
23/12:50pm 28.0 ENE 9 10 1012.9 - - - Partly cloudy 10 - - - -
23/12:40pm 28.5 E 8 12 1013.1 - - - Partly cloudy 10 - - - -
23/12:30pm 28.5 E 7 11 1013.2 - - - Partly cloudy 10 - - - -
23/12:20pm 28.4 ENE 7 10 1013.3 - - - Partly cloudy 10 - - - -
23/12:10pm 28.5 E 8 10 1013.5 - - - Partly cloudy 10 - - - -
23/12:00pm 28.4 E 7 10 1013.7 - - - Partly cloudy 10 - - - -
23/11:50am 28.3 E 8 9 1013.7 - - - Partly cloudy 10 - - - -
23/11:40am 28.6 E 9 12 1013.8 - - - Partly cloudy 10 - - - -
23/11:30am 28.5 E 9 13 1013.9 - - - Partly cloudy 10 - - - -
23/11:20am 28.4 E 8 13 1013.9 - - - Partly cloudy 10 - - - -
23/11:10am 28.5 E 9 11 1013.8 - - - Partly cloudy 10 - - - -
23/11:00am 28.4 E 8 10 1013.9 - - - Partly cloudy 10 - - - -
23/10:50am 28.4 E 8 10 1014.0 - - - Partly cloudy 10 - - - -
23/10:40am 28.3 E 9 11 1014.1 - - - Partly cloudy 10 - - - -
23/10:30am 28.6 E 10 12 1014.1 - - - Partly cloudy 10 - - - -
23/10:20am 28.9 E 9 11 1014.1 - - - Partly cloudy 10 - - - -
23/10:10am 28.2 E 8 11 1014.1 - - - Partly cloudy 10 - - - -
23/10:00am 28.1 ENE 10 12 1014.1 - - - Partly cloudy 10 - - - -
23/09:50am 28.1 E 8 14 1014.2 - - - Partly cloudy 10 - - - -
23/09:40am 28.2 ENE 9 10 1014.1 - - - Partly cloudy 10 - - - -
23/09:30am 28.0 ENE 9 12 1014.1 - - - Partly cloudy 10 - - - -
23/09:20am 27.9 ENE 7 10 1013.9 - - - Partly cloudy 10 - - - -
23/09:10am 28.0 E 8 9 1014.0 - - - Cloudy 10 - - - -
23/09:00am 28.2 ENE 7 10 1014.0 - - - Partly cloudy 10 - - - -
23/08:50am 27.9 E 7 8 1013.8 - - - Cloudy 10 - - - -
23/08:40am 27.9 NE 8 8 1013.7 - - - Cloudy 10 - - - -
23/08:30am 27.7 ENE 6 7 1013.6 - - - Cloudy 10 - - - -
23/08:20am 27.6 NE 8 8 1013.6 - - - Cloudy 10 - - - -
23/08:10am 27.6 ENE 7 9 1013.5 - - - Cloudy 10 - - - -
23/08:00am 27.6 NE 7 10 1013.5 - - - Cloudy 10 - - - -
23/07:50am 27.5 NE 6 10 1013.3 - - - Cloudy 10 - - - -
23/07:40am 27.3 NNE 5 7 1013.0 - - - Cloudy 10 - - - -
23/07:30am 27.3 NE 6 8 1012.8 - - - Cloudy 10 - - - -
23/07:20am 27.3 NE 8 10 1013.0 - - - Cloudy 10 - - - -
23/07:10am 27.2 ENE 7 9 1013.0 - - - Cloudy 10 - - - -
23/07:00am 27.2 ENE 7 7 1013.0 - - - Cloudy 10 - - - -
23/06:50am 27.2 NE 6 7 1012.7 - - - Cloudy 10 - - - -
23/06:40am 27.1 NE 6 7 1012.5 - - - Cloudy 10 - - - -
23/06:30am 27.2 NE 6 7 1012.4 - - - Cloudy 10 - - - -
23/06:20am 27.2 NNE 7 8 1012.2 - - - Cloudy 10 - - - -
23/06:10am 27.2 NE 8 8 1012.0 - - - Cloudy 10 - - - -
23/06:00am 27.2 NE 8 9 1011.9 - - - Cloudy 10 - - - -
23/05:50am 27.2 NE 7 9 1011.8 - - - Cloudy 10 - - - -
23/05:40am 27.2 NE 8 8 1011.8 - - - Cloudy 10 - - - -
23/05:30am 27.2 NE 7 9 1011.8 - - - Cloudy 10 - - - -
23/05:20am 27.2 NE 7 10 1011.7 - - - Cloudy 10 - - - -
23/05:10am 27.2 NE 7 9 1011.5 - - - Cloudy 10 - - - -
23/05:00am 27.2 NNE 7 8 1011.5 - - - Cloudy 10 - - - -
23/04:50am 27.2 NE 7 8 1011.5 - - - Cloudy 10 - - - -
23/04:40am 27.2 NNE 7 8 1011.4 - - - Cloudy 10 - - - -
23/04:30am 27.2 NNE 7 8 1011.2 - - - Cloudy 10 - - - -
23/04:20am 27.2 NNE 7 8 1011.2 - - - Cloudy 10 - - - -
23/04:10am 27.2 NNE 6 8 1011.3 - - - Cloudy 10 - - - -
23/04:00am 27.1 NNE 6 7 1011.4 - - - Cloudy 10 - - - -
23/03:50am 27.1 NNE 5 7 1011.3 - - - Cloudy 10 - - - -
23/03:40am 27.2 NNE 6 6 1011.3 - - - Cloudy 10 - - - -
23/03:30am 27.2 NNE 6 8 1011.3 - - - Cloudy 10 - - - -
23/03:20am 27.3 NNE 6 8 1011.3 - - - Cloudy 10 - - - -
23/03:10am 27.3 NNE 6 7 1011.3 - - - Cloudy 10 - - - -
23/03:00am 27.2 NNE 7 8 1011.4 - - - Cloudy 10 - - - -
23/02:50am 27.2 NNE 7 9 1011.6 - - - Cloudy 10 - - - -
23/02:40am 27.2 NNE 6 7 1011.8 - - - Cloudy 10 - - - -
23/02:30am 27.3 NNE 7 8 1011.9 - - - Cloudy 10 - - - -
23/02:20am 27.2 NNE 7 9 1012.0 - - - Cloudy 10 - - - -
23/02:10am 27.3 NNE 7 9 1012.1 - - - Cloudy 10 - - - -
23/02:00am 27.3 NE 7 7 1012.3 - - - Cloudy 10 - - - -
23/01:50am 27.4 NE 7 9 1012.4 - - - Cloudy 10 - - - -
23/01:40am 27.4 NE 6 10 1012.7 - - - Cloudy 10 - - - -
23/01:30am 27.5 NE 5 7 1012.9 - - - Cloudy 10 - - - -
23/01:20am 27.4 NE 6 7 1013.0 - - - Cloudy 10 - - - -
23/01:10am 27.5 NE 5 9 1013.1 - - - Cloudy 10 - - - -
23/01:00am 27.5 ENE 5 7 1013.3 - - - Cloudy 10 - - - -
23/12:50am 27.5 ENE 7 8 1013.3 - - - Cloudy 10 - - - -
23/12:40am 27.5 E 6 8 1013.4 - - - Cloudy 10 - - - -
23/12:30am 27.5 ENE 7 8 1013.5 - - - Cloudy 10 - - - -
23/12:20am 27.5 E 6 8 1013.6 - - - Cloudy 10 - - - -
23/12:10am 27.6 E 5 8 1013.6 - - - Cloudy 10 - - - -
23/12:00am 27.5 E 6 8 1013.7 - - - Cloudy 10 - - - -

Other Formats:

Comma delimited format used in spreadsheet applications
http://www.bom.gov.au/fwo/IDD60701/IDD60701.95100.axf

JavaScript Object Notation format (JSON) in row-major order
http://www.bom.gov.au/fwo/IDD60701/IDD60701.95100.json